[[{"header":{"parameterUnit":"m.s-1","parameterCategory":1,"la1":30.2991,"la2":30.254,"lo1":-89.0895,"lo2":-89.0444,"dy":0.0017,"dx":0.0017,"nx":28,"ny":28,"refTime":"2025-07-17T03:00:00:Z","depth":0,"parameterNumber":2,"parameterNumberName":"U-component_of_WINDS"},"data":[0,0,0,0,0,0,0,0,0,0,0,0,0,0,0,0,0,0,0,0,0,0,0,0,0,0,0,0,0,0,0,0,0,0,0,0,0,0,0,0,0,0,0,0,0,0,0,0,0,0,0,0,0,0,0,0,0,0,2.4824,2.4824,0,2.4828,2.4828,2.4828,2.4792,2.4791,2.479,2.4789,2.4793,2.4794,2.4795,0,0,0,0,0,0,0,0,0,0,0,0,0,2.4784,2.4785,2.4824,2.4824,2.4824,2.4828,2.4828,2.4828,2.4792,2.4791,2.4789,2.4788,2.4793,2.4794,2.4795,0,0,0,0,0,0,0,0,0,0,0,0,0,2.4796,2.4785,2.4824,2.4807,2.4805,2.4828,2.4828,2.4828,2.4792,2.4791,2.4789,2.4788,2.4792,2.4794,2.4795,2.4836,0,0,2.48,2.4801,0,0,0,0,0,0,0,0,2.4795,2.4798,2.4809,2.4808,2.4806,2.4808,2.4815,2.4831,2.4793,2.4797,2.4789,2.4787,2.4799,2.48,2.4804,2.4836,2.4836,2.48,2.4801,2.4802,2.4803,0,0,0,0,0,0,0,2.4795,2.4797,2.4826,2.4809,2.4807,2.4798,2.4798,2.4818,2.4807,2.4797,2.4794,2.4795,2.4798,2.4803,2.4804,2.4836,2.48,2.4802,2.4803,2.4803,2.4897,2.4899,0,0,0,0,0,0,2.4796,2.4797,2.4825,2.4826,2.4797,2.48,2.48,2.4809,2.4806,2.4804,2.4796,2.4793,2.4801,2.4802,2.4804,2.4848,2.4802,2.4804,2.4804,2.4896,2.4897,2.4899,0,0,0,0,0,0,2.4796,2.4799,2.4825,2.481,2.4813,2.4802,2.4812,2.481,2.4814,2.4806,2.4804,2.4803,2.48,2.4802,2.4827,2.4848,2.4804,2.4806,2.4894,2.4896,2.4898,2.4938,0,0,0,0,0,0,2.4795,2.4799,2.4815,2.4811,2.4814,2.4849,2.4814,2.4811,2.4817,2.4813,2.4812,2.481,2.4799,2.4825,2.4829,2.4849,2.4807,2.4892,2.4895,2.4898,2.4935,2.4942,2.4947,0,0,0,0,0,2.4793,2.4827,2.4816,2.4819,2.4833,2.485,2.4852,2.4838,2.4819,2.4834,2.4828,2.481,2.4846,2.4828,2.4832,2.4853,2.489,2.4894,2.4897,2.4932,2.494,2.4947,0,0,0,0,0,0,2.4833,2.4826,2.4814,2.4847,2.4849,2.4844,2.4862,2.4847,2.4855,2.4851,2.4834,2.4834,2.4861,2.486,2.4841,2.489,2.4864,2.4869,2.489,2.4897,2.4903,2.4902,2.4808,0,0,0,0,0,2.4846,2.4861,2.4853,2.4883,2.4885,2.4874,2.4881,2.4869,2.4871,2.4872,2.4869,2.4871,2.4882,2.489,2.49,2.4935,2.4933,2.4952,2.4958,2.4963,2.4966,2.4982,2.4989,2.491,2.491,2.491,0,0,2.4873,2.487,2.4881,2.4891,2.4892,2.4906,2.4875,2.4892,2.4902,2.4875,2.4897,2.4895,2.4897,2.4926,2.4939,2.4926,2.4988,2.4967,2.4971,2.4972,2.4986,2.4993,2.5,2.4913,2.4912,2.4912,0,0,2.4927,2.4928,2.4951,2.4952,2.4953,2.4945,2.4951,2.4947,2.4944,2.4967,2.4946,2.4958,2.4979,2.4979,2.4983,2.5036,2.5019,2.504,2.5071,2.5086,2.5093,2.5098,2.5114,2.5121,2.5044,2.5044,2.5044,0,2.496,2.4981,2.4966,2.4983,2.4988,2.4963,2.4986,2.4987,2.4992,2.4995,2.4981,2.5004,2.5004,2.5031,2.5044,2.5049,2.5053,2.5039,2.5093,2.5098,2.5103,2.5118,2.5125,2.5046,2.5046,2.5046,2.5045,0,2.5019,2.5034,2.5053,2.5056,2.5063,2.5084,2.507,2.5079,2.5067,2.506,2.5082,2.5081,2.5089,2.5095,2.5085,2.5121,2.5112,2.5096,2.5069,2.5113,2.5127,2.5133,2.5049,2.5049,2.5048,2.5047,0,0,2.5099,2.5093,2.5099,2.5099,2.5098,2.5109,2.5128,2.5135,2.5141,2.5145,2.5159,2.5176,2.516,2.5164,2.5153,2.5167,2.5205,2.5148,2.5148,2.5156,2.5242,2.5253,2.526,2.5195,2.5196,2.5197,2.5241,0,2.515,2.5181,2.5167,2.5199,2.5211,2.5187,2.5203,2.5203,2.5197,2.5206,2.52,2.5211,2.519,2.5192,2.5205,2.5198,2.5222,2.5195,2.5206,2.5206,2.5203,2.5268,2.528,2.5321,2.5247,2.5248,2.5248,0,2.5213,2.5218,2.5251,2.5245,2.5249,2.5264,2.5268,2.5277,2.5277,2.5271,2.5275,2.526,2.5277,2.5252,2.5274,2.5255,2.5259,2.5256,2.5258,2.5256,2.5228,2.5265,2.5335,2.534,2.5257,2.5257,2.5256,0,2.5264,2.528,2.53,2.5301,2.5296,2.5306,2.5304,2.5302,2.5306,2.531,2.5312,2.5319,2.5322,2.5327,2.5314,2.5297,2.5336,2.5311,2.533,2.5331,2.5338,2.5337,2.5406,2.5345,2.5345,2.5345,2.5345,0,2.5321,2.5341,2.5322,2.5335,2.5356,2.534,2.5362,2.5357,2.5355,2.5366,2.5347,2.5357,2.534,2.5349,2.5339,2.5357,2.5359,2.5354,2.5351,2.5354,2.5355,2.5355,2.5351,2.5346,2.5346,2.5346,2.5345,0,2.5381,2.537,2.539,2.5382,2.5381,2.5397,2.539,2.54,2.5393,2.5406,2.5409,2.5397,2.5405,2.5393,2.5402,2.5395,2.5418,2.5412,2.5418,2.5415,2.5434,2.5432,2.5504,2.5512,2.5448,2.5448,2.5449,0,2.5417,2.5431,2.5425,2.543,2.5429,2.5438,2.5442,2.5427,2.5431,2.5431,2.5441,2.5448,2.5452,2.5467,2.5459,2.5464,2.5456,2.5481,2.5457,2.5459,2.5453,2.5452,2.5452,2.5486,2.5486,2.5487,2.5488,0,2.548,2.5473,2.548,2.5483,2.5488,2.5491,2.5492,2.5497,2.5481,2.5487,2.5495,2.5498,2.5506,2.5512,2.5515,2.5512,2.5497,2.5496,2.55,2.5502,2.5504,2.5501,2.5429,2.5493,2.5493,2.5492,2.5492,2.5492,2.5527,2.5538,2.5534,2.5541,2.554,2.5541,2.555,2.5543,2.5549,2.5553,2.5544,2.5554,2.5551,2.5553,2.5552,2.5559,2.5548,2.5555,2.5557,2.5558,2.556,2.5505,2.556,2.556,2.556,2.556,2.556,0,2.5587,2.5583,2.559,2.5591,2.5596,2.5581,2.5581,2.5586,2.5595,2.5593,2.5598,2.5606,2.5612,2.5604,2.5608,2.5615,2.5607,2.5616,2.5614,2.5613,2.5571,2.5565,2.5622,2.5622,2.5622,2.5622,2.5622,2.5622,2.5619,2.5635,2.5628,2.5643,2.5639,2.5648,2.5649,2.5649,2.5647,2.5657,2.5661,2.5656,2.5652,2.5655,2.5659,2.5656,2.5658,2.5668,2.5663,2.5623,2.5617,2.5611,2.5605,2.567,2.567,2.5705,2.5705,2.5706]},{"header":{"parameterUnit":"m.s-1","parameterCategory":1,"la1":30.2991,"la2":30.254,"lo1":-89.0895,"lo2":-89.0444,"dy":0.0017,"dx":0.0017,"nx":28,"ny":28,"refTime":"2025-07-17T03:00:00:Z","depth":0,"parameterNumber":3,"parameterNumberName":"V-component_of_WINDS"},"data":[0,0,0,0,0,0,0,0,0,0,0,0,0,0,0,0,0,0,0,0,0,0,0,0,0,0,0,0,0,0,0,0,0,0,0,0,0,0,0,0,0,0,0,0,0,0,0,0,0,0,0,0,0,0,0,0,0,0,7.927,7.9271,0,7.9425,7.9426,7.9428,7.9394,7.9391,7.9388,7.9385,7.9539,7.9545,7.9552,0,0,0,0,0,0,0,0,0,0,0,0,0,7.8938,7.8944,7.9269,7.9271,7.9273,7.9424,7.9427,7.9429,7.9394,7.9391,7.9387,7.9384,7.9536,7.9544,7.9553,0,0,0,0,0,0,0,0,0,0,0,0,0,7.9086,7.8946,7.9269,7.9275,7.9277,7.9424,7.9427,7.9429,7.9395,7.9391,7.9386,7.9382,7.9534,7.9544,7.9554,7.9704,0,0,7.9585,7.9589,0,0,0,0,0,0,0,0,7.9078,7.9098,7.9272,7.9274,7.9277,7.9386,7.9366,7.9521,7.9396,7.935,7.9385,7.938,7.9491,7.9504,7.9543,7.9711,7.9718,7.9586,7.9592,7.9596,7.9599,0,0,0,0,0,0,0,7.9068,7.9091,7.9331,7.9274,7.9278,7.9267,7.9284,7.9395,7.9443,7.9354,7.9351,7.9371,7.9491,7.9533,7.9546,7.972,7.9586,7.9595,7.9601,7.9605,8.0017,8.0022,0,0,0,0,0,0,7.9056,7.9083,7.9326,7.9335,7.9165,7.9277,7.9295,7.9355,7.9441,7.9451,7.9374,7.9368,7.9518,7.9534,7.9551,7.9732,7.9596,7.9606,7.9612,8.0013,8.0018,8.0024,0,0,0,0,0,0,7.9049,7.9078,7.932,7.9209,7.9239,7.9287,7.9355,7.936,7.9402,7.9457,7.9465,7.9408,7.9515,7.9537,7.9666,7.9737,7.961,7.962,8.0007,8.0014,8.0021,8.0095,0,0,0,0,0,0,7.9039,7.9076,7.9134,7.9211,7.9245,7.9434,7.9359,7.9367,7.942,7.9414,7.9491,7.95,7.9513,7.9651,7.9676,7.9749,7.9628,8.0001,8.001,8.0019,8.0086,8.0104,8.0119,0,0,0,0,0,7.9028,7.9148,7.9138,7.9167,7.932,7.9438,7.9457,7.9472,7.9426,7.9485,7.952,7.9497,7.9725,7.9665,7.9693,7.9769,7.9996,8.0007,8.0018,8.0079,8.01,8.0118,0,0,0,0,0,0,7.9078,7.9158,7.9147,7.9297,7.9361,7.9432,7.9507,7.9494,7.9572,7.9563,7.9576,7.9593,7.9725,7.976,7.9691,7.9918,7.9854,7.9871,7.9891,7.9911,7.9927,7.9916,7.9636,0,0,0,0,0,7.9106,7.9197,7.9262,7.9387,7.942,7.9458,7.951,7.9516,7.9582,7.9609,7.9653,7.9717,7.9803,7.9859,7.9941,8.0091,8.0106,8.0157,8.0173,8.0187,8.0201,8.0281,8.0304,8.0059,8.0059,8.0059,0,0,7.9166,7.9221,7.9277,7.9399,7.9449,7.9541,7.9481,7.9581,7.9649,7.9623,7.9748,7.9783,7.9855,7.9995,8.0059,8.0028,8.0272,8.02,8.021,8.0218,8.0295,8.0318,8.0339,8.0067,8.0065,8.0064,0,0,7.9321,7.9373,7.9482,7.9534,7.9612,7.9637,7.9663,7.9736,7.9759,7.9885,7.9867,7.9947,8.0095,8.0147,8.0192,8.0367,8.0348,8.0393,8.0477,8.0555,8.0575,8.0592,8.0653,8.0675,8.0407,8.0407,8.0407,0,7.9385,7.9525,7.954,7.9642,7.9695,7.9678,7.9787,7.9836,7.9936,7.9973,7.9937,8.0122,8.0169,8.0321,8.0363,8.0401,8.043,8.0384,8.0571,8.0588,8.0605,8.0663,8.0686,8.0412,8.0412,8.0411,8.0411,0,7.9598,7.9695,7.9774,7.9873,7.9935,8.004,8.0069,8.013,8.013,8.0157,8.0285,8.0341,8.0434,8.047,8.0471,8.0622,8.06,8.0568,8.0503,8.0633,8.0687,8.071,8.0419,8.0417,8.0416,8.0415,0,0,7.9789,7.9895,7.9924,7.9968,8.0052,8.0127,8.023,8.0323,8.0374,8.0443,8.0529,8.0654,8.0625,8.0677,8.0683,8.0752,8.0885,8.0711,8.0713,8.0741,8.1053,8.1076,8.1102,8.0874,8.0878,8.0881,8.1046,0,7.9952,8.0137,8.0153,8.0318,8.0407,8.0392,8.0482,8.0542,8.057,8.0648,8.0678,8.0767,8.0722,8.0753,8.0821,8.0855,8.0948,8.0843,8.0952,8.0956,8.0934,8.1131,8.1156,8.1309,8.1068,8.1072,8.1074,0,8.0166,8.0243,8.0418,8.0489,8.0527,8.0608,8.0693,8.0769,8.0836,8.0851,8.0909,8.0906,8.101,8.0943,8.1086,8.1014,8.1059,8.1083,8.1089,8.1099,8.1022,8.1145,8.1358,8.1381,8.1109,8.1106,8.1103,0,8.0287,8.0434,8.0558,8.0596,8.0682,8.0739,8.0778,8.0841,8.0895,8.0969,8.1004,8.1088,8.1134,8.1199,8.1217,8.1167,8.136,8.1293,8.1374,8.1373,8.1414,8.1411,8.1637,8.1445,8.1445,8.1444,8.1444,0,8.0466,8.0573,8.0613,8.0689,8.0808,8.0824,8.0941,8.0976,8.1032,8.1113,8.1104,8.1179,8.12,8.1279,8.1294,8.1409,8.143,8.1444,8.1446,8.1445,8.1443,8.1474,8.1463,8.145,8.1449,8.1448,8.1447,0,8.0621,8.0652,8.0785,8.0857,8.0877,8.0961,8.1021,8.1093,8.1119,8.1222,8.1246,8.1288,8.138,8.1405,8.1515,8.1525,8.166,8.1653,8.1638,8.1638,8.1716,8.1708,8.1969,8.2003,8.179,8.1792,8.1794,0,8.0733,8.0815,8.0895,8.095,8.0991,8.1078,8.1134,8.1153,8.1211,8.1293,8.1355,8.1446,8.152,8.1667,8.1706,8.1789,8.1784,8.1869,8.1796,8.1791,8.1784,8.1778,8.1786,8.1883,8.1885,8.1887,8.1888,0,8.0928,8.0939,8.1021,8.1108,8.1174,8.1243,8.1309,8.1354,8.1382,8.1446,8.1542,8.1599,8.1712,8.1802,8.1886,8.1923,8.191,8.1911,8.1934,8.1932,8.192,8.1926,8.1675,8.1905,8.1903,8.1902,8.1901,8.19,8.1064,8.1136,8.1204,8.1295,8.1346,8.1408,8.1479,8.1515,8.1595,8.169,8.1695,8.1798,8.1861,8.1974,8.2015,8.2094,8.2069,8.2102,8.211,8.2118,8.2124,8.1908,8.211,8.2109,8.2109,8.2109,8.2108,0,8.1258,8.1301,8.1384,8.1477,8.1548,8.1532,8.1603,8.1663,8.1754,8.1815,8.1889,8.1997,8.2084,8.2129,8.2215,8.227,8.2266,8.2291,8.2287,8.2296,8.2143,8.2114,8.2293,8.2293,8.2293,8.2293,8.2293,8.2293,8.1367,8.1488,8.1507,8.1653,8.1694,8.1796,8.1838,8.1894,8.1943,8.2065,8.2138,8.2168,8.2222,8.2312,8.2391,8.2401,8.2433,8.2462,8.2469,8.2325,8.2306,8.2288,8.2261,8.2469,8.2469,8.2615,8.2617,8.2618]}]]